Back to catalog

COSMOS 594

AliveMilitaryLEO
NORAD 6851·PAYLOAD·🇷🇺 Russia

Launched Oct 2, 1973 from Plesetsk Cosmodrome

Loading…

Next Passes (next 24 hours)

TLE

FreshSource: Space-Track

Epoch: Sep 14, 2026, 04:32 UTC

1 06851U 73069G   26257.18916837  .00000010  00000-0  15434-3 0  9991
2 06851  74.0020 158.0876 0067620 212.1670 302.3034 12.57652069430836

Track COSMOS 594 in real time with AllMySat

Download on the App Store